CAPE
0 0 0 0 0 730 951 1007 1008 932 847 999 920 898 819 706 618 557 501 499 504 495 549 648 409 365 328 324 391 417 290 335 251 104 32 126 100 42 7 24 7 0 0
0 0 0 0 0 0 722 941 970 963 1063 1098 1118 1154 1182 1052 1015 1059 805 729 609 684 613 605 559 519 572 574 378 199 318 190 108 55 0 2 0 26 18 0 0 0 0
0 0 0 0 0 0 7 554 710 765 899 1064 1077 798 558 419 674 901 801 487 0 16 128 261 272 241 181 183 217 101 96 58 13 3 11 36 4 19 21 14 0 0 0
3 18 0 0 0 0 0 0 8 128 116 235 364 256 401 620 305 62 0 0 0 0 0 0 0 0 3 15 3 8 20 57 20 4 2 11 41 27 11 6 3 5 0
0 14 0 0 0 0 0 0 0 0 0 0 0 0 0 0 0 0 0 0 0 0 0 0 0 0 0 0 0 0 0 10 3 5 26 29 7 0 0 2 0 0 0
0 0 0 0 0 0 0 0 0 0 0 0 0 0 0 0 0 0 0 0 0 0 0 0 0 0 0 0 0 1 0 3 8 5 21 35 1 0 1 1 12 0 0
0 0 0 0 0 0 0 0 0 0 0 0 0 0 0 0 0 0 0 0 0 0 0 0 0 0 0 1 4 1 1 7 18 26 14 44 17 0 0 0 0 0 3
0 0 0 0 0 0 0 0 0 0 0 0 0 0 0 0 0 0 0 0 0 0 0 0 0 0 0 1 5 19 8 2 14 19 2 0 0 0 0 0 1 0 3
0 0 0 0 0 0 0 0 0 0 0 0 0 0 0 0 0 0 0 0 0 0 0 0 0 0 0 2 0 0 0 0 0 0 0 0 0 0 0 0 0 5 4
0 0 0 0 0 0 0 0 0 0 0 0 0 0 0 0 0 0 0 0 0 0 0 0 0 0 0 0 1 0 0 0 0 0 0 0 0 0 2 1 1 1 4
0 0 0 0 0 0 0 0 0 0 0 0 0 0 0 0 0 0 0 0 0 0 0 0 0 0 0 0 1 1 0 0 0 0 1 0 0 4 0 0 0 3 0
0 0 0 0 0 0 0 0 0 0 0 0 0 0 0 0 0 0 0 0 0 0 0 0 0 0 0 0 0 0 0 1 1 1 1 0 0 0 0 2 1 0 1
0 0 0 0 0 0 0 0 0 0 0 0 0 0 0 0 0 0 0 0 0 0 0 0 0 0 0 0 0 0 0 0 0 0 0 0 1 1 1 0 2 1 1
0 0 0 0 0 0 0 0 0 0 0 0 0 0 0 0 0 0 0 0 0 0 0 0 0 0 0 0 0 0 0 0 0 0 0 0 1 2 1 0 1 0 1
0 0 0 0 0 0 0 0 0 0 0 0 0 0 0 0 0 0 0 0 0 0 0 0 0 0 0 1 1 1 1 1 1 1 0 2 0 0 0 3 1 1 0
0 0 0 0 0 0 0 0 0 0 0 0 0 0 0 0 2 1 1 0 0 0 0 0 0 1 0 1 1 0 0 1 1 0 0 0 0 0 0 1 0 0 0
0 0 0 0 0 0 0 0 0 0 0 0 0 0 0 1 0 1 1 1 0 0 0 0 1 3 0 2 0 0 0 0 1 0 0 0 0 0 0 0 0 0 0
0 0 0 0 0 0 0 0 0 0 0 0 0 0 1 0 0 2 1 1 1 1 2 2 0 0 1 1 0 0 0 0 0 0 0 0 0 0 0 0 0 0 0
0 0 0 0 0 0 0 0 0 0 0 0 0 0 0 1 2 2 2 2 2 0 0 0 0 0 3 0 0 0 0 0 0 0 0 0 0 0 0 0 0 0 0
0 0 0 0 0 0 0 0 0 0 0 0 0 1 1 2 1 2 1 1 1 1 0 3 0 0 0 0 0 0 0 0 0 0 0 0 0 0 0 0 0 0 0
0 0 0 0 0 0 0 0 0 0 0 0 0 2 2 2 1 0 1 0 0 0 2 1 0 0 0 0 0 0 0 0 0 0 0 0 0 0 0 0 0 0 0
0 0 0 0 0 0 0 0 0 0 0 0 1 1 1 1 0 1 0 0 1 0 0 0 0 0 0 0 0 0 0 0 0 0 0 0 0 0 0 0 0 0 0
0 0 0 0 0 0 0 0 0 0 0 0 1 1 1 1 0 1 0 0 0 0 0 0 0 0 0 0 0 0 0 0 0 0 0 0 0 0 0 0 0 0 0
0 0 0 0 0 0 0 0 0 0 0 0 0 1 2 1 0 0 0 0 0 0 0 0 0 0 0 0 0 0 0 0 0 0 0 0 0 0 0 0 0 0 0
0 0 0 0 0 0 0 0 0 0 0 0 0 0 0 1 0 0 0 0 0 0 0 0 0 0 0 0 0 0 0 0 0 0 0 0 0 0 0 0 0 0 0
0 0 0 0 0 0 0 0 0 0 0 0 0 0 0 1 0 0 0 1 0 0 0 0 0 0 0 0 0 0 0 0 0 0 0 0 0 0 0 0 0 0 0
CIN
-0 -0 -0 -0 -0 -7 -6 -13 -19 -19 -12 -0 -5 -8 -11 -8 -3 -5 -6 -5 -3 -0 -0 -0 -1 -2 -2 -2 -0 -0 -0 -1 -2 -10 -15 -8 -11 -1 -1 -0 -0 -0 -0
-0 -0 -0 -0 -0 -0 -13 -8 -19 -16 -6 -0 -0 -0 -3 -1 -0 -4 -0 -3 -3 -1 -10 -9 -7 -7 -2 -1 -3 -5 -2 -7 -7 -1 -0 -4 -0 -2 -8 -0 -0 -0 -0
-0 -0 -0 -0 -0 -0 -62 -33 -22 -21 -9 -1 -0 -29 -55 -77 -26 -0 -3 -25 -0 -51 -14 -25 -20 -12 -14 -9 -12 -18 -11 -19 -7 -11 -4 -0 -1 -11 -11 -6 -0 -0 -0
-8 -11 -0 -0 -0 -0 -0 -0 -39 -193 -206 -143 -88 -109 -63 -21 -66 -4 -1 -0 -0 -0 -0 -0 -0 -0 -0 -5 -14 -11 -2 -27 -0 -6 -8 -10 -3 -0 -1 -2 -3 -2 -0
-0 -9 -2 -0 -0 -0 -0 -0 -0 -0 -0 -0 -0 -0 -0 -0 -0 -0 -0 -0 -0 -0 -0 -0 -0 -0 -0 -0 -0 -0 -0 -0 -2 -1 -6 -5 -34 -0 -10 -11 -6 -4 -0
-0 -0 -0 -0 -0 -0 -0 -0 -0 -0 -0 -0 -0 -0 -0 -0 -0 -0 -0 -0 -0 -0 -0 -0 -0 -0 -0 -0 -0 -0 -0 -1 -1 -4 -0 -2 -7 -16 -0 -0 -1 -0 -1
-0 -0 -0 -0 -0 -0 -0 -0 -0 -0 -0 -0 -0 -0 -0 -0 -0 -0 -0 -0 -0 -0 -0 -0 -0 -0 -0 -0 -0 -0 -3 -2 -0 -6 -5 -3 -23 -0 -0 -0 -0 -0 -5
-0 -0 -0 -0 -0 -0 -0 -0 -0 -0 -0 -0 -0 -0 -0 -0 -0 -0 -0 -0 -0 -0 -0 -0 -0 -0 -0 -0 -3 -2 -4 -8 -0 -0 -5 -0 -0 -0 -0 -0 -10 -4 -0
-0 -0 -0 -0 -0 -0 -0 -0 -0 -0 -0 -0 -0 -0 -0 -0 -0 -0 -0 -0 -0 -0 -0 -0 -0 -0 -0 -0 -0 -0 -0 -0 -0 -0 -0 -0 -0 -0 -0 -0 -8 -1 -0
-0 -0 -0 -0 -0 -0 -0 -0 -0 -0 -0 -0 -0 -0 -0 -0 -0 -0 -0 -0 -0 -0 -0 -0 -0 -0 -0 -0 -0 -0 -0 -0 -0 -0 -0 -0 -0 -0 -0 -0 -0 -0 -2
-0 -0 -0 -0 -0 -0 -0 -0 -0 -0 -0 -0 -0 -0 -0 -0 -0 -0 -0 -0 -0 -0 -0 -0 -0 -0 -0 -0 -0 -0 -0 -0 -0 -0 -0 -0 -0 -0 -0 -0 -0 -0 -0
-0 -0 -0 -0 -0 -0 -0 -0 -0 -0 -0 -0 -0 -0 -0 -0 -0 -0 -0 -0 -0 -0 -0 -0 -0 -0 -0 -0 -0 -0 -0 -0 -0 -0 -0 -0 -0 -0 -0 -0 -0 -0 -0
-0 -0 -0 -0 -0 -0 -0 -0 -0 -0 -0 -0 -0 -0 -0 -0 -0 -0 -0 -0 -0 -0 -0 -0 -0 -0 -0 -0 -0 -0 -0 -0 -0 -0 -0 -0 -0 -0 -0 -0 -0 -0 -0
-0 -0 -0 -0 -0 -0 -0 -0 -0 -0 -0 -0 -0 -0 -0 -0 -0 -0 -0 -0 -0 -0 -0 -0 -0 -0 -0 -0 -0 -0 -0 -0 -0 -0 -0 -0 -0 -0 -0 -0 -0 -0 -0
-0 -0 -0 -0 -0 -0 -0 -0 -0 -0 -0 -0 -0 -0 -0 -0 -0 -0 -0 -0 -0 -0 -0 -0 -0 -0 -0 -0 -0 -0 -0 -0 -0 -0 -0 -0 -0 -0 -0 -0 -0 -0 -0
-0 -0 -0 -0 -0 -0 -0 -0 -0 -0 -0 -0 -0 -0 -0 -0 -0 -0 -0 -0 -0 -0 -0 -0 -0 -0 -0 -0 -0 -0 -0 -0 -0 -0 -0 -0 -0 -0 -4 -2 -3 -0 -0
-0 -0 -0 -0 -0 -0 -0 -0 -0 -0 -0 -0 -0 -0 -0 -0 -0 -0 -0 -0 -0 -0 -0 -0 -0 -0 -0 -0 -0 -0 -0 -0 -0 -0 -0 -0 -0 -0 -0 -0 -0 -0 -0
-0 -0 -0 -0 -0 -0 -0 -0 -0 -0 -0 -0 -0 -0 -0 -0 -0 -0 -0 -0 -0 -0 -0 -0 -0 -0 -0 -0 -0 -0 -0 -0 -0 -0 -0 -0 -0 -0 -0 -0 -0 -0 -0
-0 -0 -0 -0 -0 -0 -0 -0 -0 -0 -0 -0 -0 -0 -0 -0 -0 -0 -0 -0 -0 -0 -0 -0 -0 -0 -0 -0 -0 -0 -0 -0 -0 -0 -0 -0 -0 -0 -0 -0 -0 -0 -0
-0 -0 -0 -0 -0 -0 -0 -0 -0 -0 -0 -0 -0 -0 -0 -0 -0 -0 -0 -0 -0 -0 -0 -0 -0 -0 -0 -0 -0 -0 -0 -0 -0 -0 -0 -0 -0 -0 -0 -0 -0 -0 -0
-0 -0 -0 -0 -0 -0 -0 -0 -0 -0 -0 -0 -0 -0 -0 -0 -0 -0 -0 -0 -0 -0 -0 -0 -0 -0 -0 -0 -0 -0 -0 -0 -0 -0 -0 -0 -0 -0 -0 -0 -0 -0 -0
-0 -0 -0 -0 -0 -0 -0 -0 -0 -0 -0 -0 -0 -0 -0 -0 -0 -0 -0 -0 -0 -0 -0 -0 -0 -0 -0 -0 -0 -0 -0 -0 -0 -0 -0 -0 -0 -0 -0 -0 -0 -0 -0
-0 -0 -0 -0 -0 -0 -0 -0 -0 -0 -0 -0 -0 -0 -0 -0 -0 -0 -0 -0 -0 -0 -0 -0 -0 -0 -0 -0 -0 -0 -0 -0 -0 -0 -0 -0 -0 -0 -0 -0 -0 -0 -0
-0 -0 -0 -0 -0 -0 -0 -0 -0 -0 -0 -0 -0 -0 -0 -0 -0 -0 -0 -0 -0 -0 -0 -0 -0 -0 -0 -0 -0 -0 -0 -0 -0 -0 -0 -0 -0 -0 -0 -0 -0 -0 -0
-0 -0 -0 -0 -0 -0 -0 -0 -0 -0 -0 -0 -0 -0 -0 -0 -0 -0 -0 -0 -0 -0 -0 -0 -0 -0 -0 -0 -0 -0 -0 -0 -0 -0 -0 -0 -0 -0 -0 -0 -0 -0 -0
-0 -0 -0 -0 -0 -0 -0 -0 -0 -0 -0 -0 -0 -0 -0 -0 -0 -0 -0 -0 -0 -0 -0 -0 -0 -0 -0 -0 -0 -0 -0 -0 -0 -0 -0 -0 -0 -0 -0 -0 -0 -0 -0
Wind_Speed
12 7 4 2 5 9 11 11 11 11 8 6 6 6 7 7 6 6 6 6 6 7 7 5 6 5 7 9 9 7 8 5 5 1 6 7 7 7 7 5 4 3 3
17 11 7 3 6 8 10 12 12 11 10 7 6 5 4 5 6 4 5 6 7 5 3 4 3 4 4 8 7 7 5 1 1 1 1 3 5 5 2 2 3 4 2
19 16 10 7 5 6 7 8 9 10 10 9 4 2 2 2 2 3 3 1 2 4 4 4 3 3 2 4 5 4 4 4 3 6 3 4 4 2 3 3 0 1 2
16 16 14 9 8 6 4 5 5 5 3 4 5 7 5 5 2 2 2 2 2 3 3 4 4 5 4 5 6 5 5 4 6 2 5 7 4 3 3 2 3 4 4
11 10 12 10 9 8 6 7 5 6 6 5 6 5 5 1 3 2 3 3 2 1 2 3 4 4 4 5 6 6 6 6 7 8 3 5 1 2 1 2 3 3 3
13 10 12 11 10 8 7 6 7 6 6 5 4 4 3 3 3 3 2 2 1 1 2 3 4 5 5 5 5 6 6 6 6 5 7 5 3 4 4 4 4 1 3
14 15 14 12 11 11 9 7 8 8 6 7 5 4 3 3 2 1 1 2 3 3 3 4 5 4 5 5 5 7 8 6 6 6 4 3 1 2 1 2 2 4 3
7 10 15 11 10 11 11 9 10 9 8 7 6 5 4 2 1 0 2 3 3 3 4 5 5 5 6 6 5 3 2 4 3 1 2 2 2 3 2 1 2 3 4
4 5 7 11 11 12 13 12 10 8 6 6 5 5 4 2 1 1 2 3 3 3 4 5 5 4 5 4 3 2 2 3 3 3 4 3 3 2 2 1 1 3 2
4 5 4 6 8 10 11 11 11 10 8 5 3 3 3 2 0 2 3 3 3 4 5 5 4 4 3 3 2 2 2 2 2 1 3 4 2 3 3 1 1 1 2
5 3 4 5 7 8 8 9 10 8 7 7 5 4 3 1 2 3 3 3 4 3 4 4 5 4 3 2 1 1 2 2 1 0 2 2 2 3 2 2 1 0 2
6 3 4 8 10 10 10 11 9 8 7 6 6 4 3 3 3 4 4 4 5 3 4 4 4 4 3 3 2 3 3 2 2 3 3 3 2 4 3 2 2 1 2
4 3 6 8 9 10 10 10 9 9 8 6 6 4 3 4 4 4 4 3 4 3 3 3 3 3 3 2 1 2 2 3 4 3 3 3 4 4 3 4 3 3 1
8 6 8 9 11 11 11 10 9 8 7 6 4 3 4 4 4 3 4 3 2 2 2 2 0 1 3 3 3 3 4 5 6 6 6 6 5 4 5 4 2 2 0
13 10 11 12 13 12 12 11 10 9 8 7 6 5 4 4 4 2 2 2 2 1 1 1 1 3 1 1 3 5 5 6 7 7 7 7 7 10 6 2 3 1 1
14 13 12 13 13 14 12 11 11 10 9 8 7 5 5 4 4 5 4 3 3 3 2 3 3 3 2 5 5 6 6 5 6 6 5 5 7 8 9 8 10 7 4
16 14 12 13 13 13 12 12 11 10 9 7 6 6 6 6 6 5 5 5 3 3 3 3 4 4 3 5 5 6 5 5 3 3 3 3 3 3 4 5 5 6 6
16 15 12 10 12 11 10 10 10 10 9 8 8 7 7 7 7 6 6 5 4 3 3 4 4 4 4 6 6 6 5 4 4 3 2 4 5 4 3 3 2 3 2
15 15 14 11 10 10 11 12 12 11 10 10 9 9 9 8 8 6 5 4 4 3 2 2 4 4 3 6 6 5 2 3 3 3 0 2 2 6 3 2 1 1 2
12 13 10 8 9 10 11 11 11 11 10 9 8 8 8 9 8 7 6 4 5 4 3 3 3 4 1 5 5 3 1 3 3 3 2 1 3 3 1 3 2 2 1
12 11 7 6 6 9 10 11 10 10 9 8 8 8 8 7 7 6 5 4 5 5 4 4 3 3 5 5 6 5 2 1 1 1 2 2 2 3 2 1 3 2 4
10 8 4 3 5 8 10 9 9 8 9 9 9 9 9 5 5 7 5 5 6 6 5 5 4 4 5 6 8 8 4 1 0 1 1 2 3 4 5 3 4 3 1
8 5 4 4 5 8 8 8 8 9 10 10 9 9 8 7 7 8 7 5 6 5 6 5 4 4 4 4 9 8 8 7 2 1 0 1 3 4 5 6 6 4 3
7 4 4 6 7 7 7 6 8 9 9 9 8 8 8 7 6 5 6 6 5 5 5 5 5 4 4 4 3 4 5 7 4 3 4 4 3 4 5 2 4 3 3
7 5 6 6 7 8 7 6 8 10 9 9 8 8 7 8 6 5 6 6 6 7 6 5 5 5 4 5 8 7 4 3 5 4 2 3 4 4 4 4 3 3 3
6 5 5 5 2 2 3 5 6 7 6 6 6 7 6 6 6 6 5 13 12 14 12 6 5 3 5 4 10 11 10 10 7 3 3 4 4 3 4 4 3 3 4
Wind_Direction
198 180 128 244 233 207 198 193 192 197 196 206 202 204 210 219 234 233 243 243 244 248 239 254 261 252 258 263 264 270 268 254 260 23 274 252 280 268 252 265 284 319 311
235 183 157 181 234 221 210 194 197 197 194 199 207 217 220 218 212 191 226 243 251 269 323 312 288 292 286 278 281 281 278 312 276 254 6 272 273 237 156 328 317 330 0
227 188 180 164 217 217 219 209 199 201 199 201 198 57 43 34 238 214 211 183 303 292 276 270 265 280 274 256 267 280 251 246 203 186 236 276 243 39 169 188 346 344 302
225 207 186 167 188 202 180 208 186 189 190 207 190 193 208 213 171 22 79 248 243 269 274 274 281 287 268 232 247 255 258 236 232 187 219 255 287 266 278 201 208 217 315
252 219 172 182 182 141 188 153 171 169 164 186 208 216 227 48 81 154 200 219 218 227 282 295 301 280 266 277 285 273 241 234 251 246 226 225 69 44 202 247 273 353 311
222 233 224 183 170 162 164 154 160 154 149 142 164 191 173 165 171 173 231 238 268 270 265 292 291 290 284 289 309 309 295 291 261 250 250 203 178 190 185 215 254 248 286
231 206 218 186 175 173 170 161 158 171 146 150 136 145 141 134 193 191 242 280 267 254 275 316 290 289 296 290 275 273 265 249 243 245 243 231 163 90 41 131 221 235 261
274 237 203 191 177 172 170 169 177 154 184 127 158 154 147 156 158 139 302 277 290 307 320 303 297 293 298 291 334 319 25 345 324 212 80 137 112 124 151 255 209 216 226
253 218 227 203 171 174 174 169 172 163 163 158 170 146 143 127 86 315 298 306 312 312 303 295 291 295 289 290 282 1 48 71 58 47 87 96 100 117 117 127 261 275 248
274 271 228 208 185 174 163 168 160 173 157 156 162 149 126 103 252 264 275 294 295 294 296 290 292 291 294 311 322 270 253 125 80 51 95 93 93 81 86 137 168 246 292
326 245 225 195 172 175 162 155 160 159 158 158 162 183 165 227 284 278 276 276 292 287 285 301 295 290 298 297 214 270 262 226 213 115 183 126 151 124 116 87 40 116 331
317 247 197 182 176 178 173 167 166 168 163 169 179 186 186 216 252 264 272 283 276 279 299 294 289 289 297 303 272 176 230 204 166 112 130 110 112 92 68 63 71 50 17
286 214 185 188 193 187 187 178 176 178 165 169 186 191 225 245 255 252 247 248 267 264 267 281 291 297 314 300 70 102 102 89 83 76 83 81 80 80 83 66 74 56 46
303 239 214 204 194 192 187 187 181 179 175 181 189 203 230 245 258 241 232 231 250 279 335 347 49 4 23 37 60 80 87 75 72 70 70 66 71 79 73 75 76 56 206
279 237 222 211 201 195 192 189 188 185 184 191 194 201 201 202 201 187 220 202 153 113 101 93 61 101 143 131 126 116 117 110 97 77 68 64 74 74 60 44 46 9 24
281 276 240 227 213 200 199 194 193 189 189 196 196 187 189 178 186 187 185 190 159 138 140 137 119 115 128 134 133 125 116 119 116 109 90 90 74 79 74 72 62 40 22
287 274 255 229 225 212 197 196 191 184 188 194 193 186 185 186 196 192 180 175 169 150 144 130 127 120 117 107 102 110 113 90 93 112 131 118 107 92 119 112 92 80 58
311 284 267 234 227 214 189 183 182 186 188 188 192 189 181 194 188 186 183 166 161 173 152 139 123 143 115 113 100 86 63 77 80 101 153 173 129 65 76 75 110 68 76
296 296 280 246 227 197 176 179 177 180 184 188 189 184 186 183 178 182 174 162 148 119 56 83 104 96 120 126 120 96 122 114 154 186 91 48 123 118 50 61 69 242 171
310 298 288 284 248 184 172 183 176 179 187 186 183 179 189 185 180 173 158 154 156 134 139 108 128 151 83 158 153 176 175 187 149 167 118 29 7 112 168 298 17 328 342
317 310 272 236 205 168 173 189 177 185 177 174 174 176 181 181 176 153 151 146 142 146 153 161 166 181 202 191 187 199 235 181 179 149 202 140 204 251 257 280 342 324 343
329 314 278 221 152 162 182 186 184 169 167 170 171 182 183 166 157 156 146 155 152 171 180 193 191 205 194 230 208 208 226 227 222 210 208 151 195 263 278 249 250 282 267
316 311 265 194 184 183 194 184 176 170 167 174 178 183 177 172 174 170 164 172 187 193 198 199 203 203 194 205 221 224 228 216 242 219 109 250 228 270 276 253 257 232 228
302 275 235 204 193 189 193 184 159 169 171 180 178 170 176 178 179 175 172 178 187 202 208 204 212 213 186 200 186 209 225 226 210 219 228 229 243 263 270 247 229 227 245
294 255 238 225 206 187 185 176 165 175 181 187 178 170 185 183 177 188 185 195 206 208 202 209 204 204 205 213 202 197 192 189 208 198 191 200 222 230 218 212 227 230 214
294 259 258 268 272 155 182 158 164 167 182 187 188 185 179 184 182 184 198 219 221 219 230 231 209 218 235 207 214 211 210 210 200 199 221 231 229 229 238 230 220 209 229